This is the latest recevied weather packets stored in our database for station/object WD4IXD. If no packets are shown the sender has not sent any weather packets the latest 1 day(s).
| Time | Temp. | Humidity | Pressure | Rain* | Wind** | Luminosity | Snow |
|---|---|---|---|---|---|---|---|
| 1778024415 | 1.11° C | 94% | 1014.2 hPa | 0 mm | 0.89 m/s, 345° | 16 W/m² | - |
| 1778024104 | 1.11° C | 94% | 1014.5 hPa | 0 mm | 1.34 m/s, 314° | 12 W/m² | - |
| 1778023815 | 1.11° C | 94% | 1014.3 hPa | 0 mm | 1.79 m/s, 328° | 12 W/m² | - |
| 1778023504 | 1.11° C | 94% | 1014.3 hPa | 0 mm | 1.34 m/s, 320° | 11 W/m² | - |
| 1778023215 | 1.11° C | 94% | 1014.2 hPa | 0 mm | 0.89 m/s, 308° | 5 W/m² | - |
| 1778022904 | 1.11° C | 94% | 1014.1 hPa | 0 mm | 0.45 m/s, 321° | 5 W/m² | - |
| 1778022615 | 1.11° C | 94% | 1014 hPa | 0 mm | 0.45 m/s, 355° | 7 W/m² | - |
| 1778022304 | 1.11° C | 94% | 1014 hPa | 0 mm | 0.45 m/s, 347° | 9 W/m² | - |
| 1778022015 | 1.11° C | 94% | 1014.1 hPa | 0 mm | 0.89 m/s, 319° | 12 W/m² | - |
| 1778021704 | 1.11° C | 94% | 1014.2 hPa | 0 mm | 1.34 m/s, 316° | 12 W/m² | - |
| 1778021416 | 1.11° C | 94% | 1014 hPa | 0.25 mm | 0.45 m/s, 302° | 14 W/m² | - |
| 1778021104 | 1.67° C | 94% | 1013.7 hPa | 0.51 mm | 0.45 m/s, 264° | 19 W/m² | - |
| 1778020807 | 1.67° C | 94% | 1013.6 hPa | 0.51 mm | 0.45 m/s, 244° | 30 W/m² | - |
| 1778020216 | 1.67° C | 94% | 1013.4 hPa | 0.51 mm | 0.45 m/s, 191° | 30 W/m² | - |
| 1778019904 | 1.67° C | 94% | 1013.4 hPa | 0.76 mm | 0 m/s | 21 W/m² | - |
| 1778019615 | 1.67° C | 94% | 1013.5 hPa | 1.02 mm | 0 m/s | 21 W/m² | - |
| 1778019303 | 1.67° C | 94% | 1013.4 hPa | 1.02 mm | 0 m/s | 28 W/m² | - |
| 1778019015 | 1.67° C | 94% | 1013.3 hPa | 1.27 mm | 0 m/s | 40 W/m² | - |
| 1778018715 | 1.67° C | 94% | 1013.3 hPa | 1.52 mm | 0 m/s | 49 W/m² | - |
| 1778018415 | 1.67° C | 94% | 1013.3 hPa | 1.78 mm | 0 m/s | 53 W/m² | - |
| 1778018103 | 1.67° C | 94% | 1013.3 hPa | 2.03 mm | 0 m/s | 65 W/m² | - |
| 1778017815 | 1.67° C | 94% | 1013.4 hPa | 2.03 mm | 0.45 m/s, 165° | 63 W/m² | - |
| 1778017504 | 1.67° C | 94% | 1013.3 hPa | 2.03 mm | 0.89 m/s, 165° | 35 W/m² | - |
| 1778017215 | 1.67° C | 93% | 1013.3 hPa | 2.03 mm | 1.34 m/s, 165° | 25 W/m² | - |
| 1778016904 | 1.67° C | 93% | 1013.6 hPa | 2.29 mm | 1.79 m/s, 165° | 19 W/m² | - |
* Rain latest hour (hover to see other rain measurements)
** Current wind speed in m/s (hover to see current wind gust speed)